Satellite: RS-39 Catalog number: 38051 Epoch time: 14288.65876392 Element set: 41 Inclination: 051.5964 deg RA of node: 324.1908 deg Eccentricity: 0.0006422 Arg of perigee: 269.6897 deg Mean anomaly: 186.8903 deg Mean motion: 16.43533377 rev/day Decay rate: 7.0201582e-01 rev/day^2 Epoch rev: 15308 Checksum: 345
Satellite: E-STAR Catalog number: 38079 Epoch time: 14303.55464631 Element set: 46 Inclination: 069.4382 deg RA of node: 348.5051 deg Eccentricity: 0.0245870 Arg of perigee: 156.9550 deg Mean anomaly: 353.0179 deg Mean motion: 15.41840140 rev/day Decay rate: 2.03167e-03 rev/day^2 Epoch rev: 14403 Checksum: 291
Satellite: GOLIAT Catalog number: 38085 Epoch time: 14303.29561095 Element set: 495 Inclination: 069.4428 deg RA of node: 000.1778 deg Eccentricity: 0.0283406 Arg of perigee: 162.6568 deg Mean anomaly: 198.4538 deg Mean motion: 15.31907481 rev/day Decay rate: 2.25247e-03 rev/day^2 Epoch rev: 14370 Checksum: 323
Satellite: HORYU-2 Catalog number: 38340 Epoch time: 14302.81764176 Element set: 8 Inclination: 098.2818 deg RA of node: 262.4488 deg Eccentricity: 0.0013792 Arg of perigee: 106.8357 deg Mean anomaly: 253.4364 deg Mean motion: 14.73036607 rev/day Decay rate: 3.501e-05 rev/day^2 Epoch rev: 13160 Checksum: 293
Satellite: RS-40 Catalog number: 38735 Epoch time: 14302.75026727 Element set: 725 Inclination: 082.4785 deg RA of node: 203.6403 deg Eccentricity: 0.0016663 Arg of perigee: 325.4940 deg Mean anomaly: 034.5056 deg Mean motion: 12.42562509 rev/day Decay rate: 4.0e-08 rev/day^2 Epoch rev: 10228 Checksum: 279
Satellite: PROITERES Catalog number: 38756 Epoch time: 14303.65672770 Element set: 359 Inclination: 098.2266 deg RA of node: 034.1647 deg Eccentricity: 0.0011358 Arg of perigee: 314.1853 deg Mean anomaly: 045.8421 deg Mean motion: 14.75217277 rev/day Decay rate: 9.17e-06 rev/day^2 Epoch rev: 11514 Checksum: 303
Satellite: BEESAT-3 Catalog number: 39134 Epoch time: 14302.72413250 Element set: 754 Inclination: 064.8750 deg RA of node: 072.2569 deg Eccentricity: 0.0036064 Arg of perigee: 285.6164 deg Mean anomaly: 074.0978 deg Mean motion: 15.07099964 rev/day Decay rate: 1.3341e-04 rev/day^2 Epoch rev: 8391 Checksum: 311
Satellite: BEESAT-2 Catalog number: 39136 Epoch time: 14302.98360187 Element set: 738 Inclination: 064.8752 deg RA of node: 072.3781 deg Eccentricity: 0.0036265 Arg of perigee: 285.5707 deg Mean anomaly: 074.1411 deg Mean motion: 15.06246395 rev/day Decay rate: 1.2981e-04 rev/day^2 Epoch rev: 8393 Checksum: 321
Satellite: LO-75 Catalog number: 39382 Epoch time: 14295.69194059 Element set: 487 Inclination: 040.4713 deg RA of node: 030.2705 deg Eccentricity: 0.0002289 Arg of perigee: 341.7175 deg Mean anomaly: 018.4586 deg Mean motion: 16.19795749 rev/day Decay rate: 7.301741e-02 rev/day^2 Epoch rev: 47082 Checksum: 345
Satellite: ZACUBE-1 Catalog number: 39417 Epoch time: 14302.73315903 Element set: 452 Inclination: 097.7618 deg RA of node: 008.6663 deg Eccentricity: 0.0062286 Arg of perigee: 165.3315 deg Mean anomaly: 194.9722 deg Mean motion: 14.78583426 rev/day Decay rate: 2.963e-05 rev/day^2 Epoch rev: 5057 Checksum: 320
Satellite: TRITON-1 Catalog number: 39427 Epoch time: 14302.75754767 Element set: 304 Inclination: 097.7495 deg RA of node: 001.7615 deg Eccentricity: 0.0117710 Arg of perigee: 181.4780 deg Mean anomaly: 178.6094 deg Mean motion: 14.65766960 rev/day Decay rate: 2.708e-05 rev/day^2 Epoch rev: 5010 Checksum: 315
Satellite: DELFIN3XT Catalog number: 39428 Epoch time: 14302.72791048 Element set: 307 Inclination: 097.7488 deg RA of node: 000.5616 deg Eccentricity: 0.0127598 Arg of perigee: 184.7994 deg Mean anomaly: 175.1997 deg Mean motion: 14.63911984 rev/day Decay rate: 4.177e-05 rev/day^2 Epoch rev: 5001 Checksum: 340
Satellite: GOMX-1 Catalog number: 39430 Epoch time: 14303.59977771 Element set: 940 Inclination: 097.7434 deg RA of node: 357.9898 deg Eccentricity: 0.0155741 Arg of perigee: 191.8789 deg Mean anomaly: 167.8722 deg Mean motion: 14.57197172 rev/day Decay rate: 2.127e-05 rev/day^2 Epoch rev: 4993 Checksum: 368
Satellite: MO-76 Catalog number: 39436 Epoch time: 14303.14427767 Element set: 389 Inclination: 097.7679 deg RA of node: 014.8757 deg Eccentricity: 0.0024961 Arg of perigee: 160.8847 deg Mean anomaly: 199.3315 deg Mean motion: 14.93948049 rev/day Decay rate: 3.2932e-04 rev/day^2 Epoch rev: 5099 Checksum: 372
Satellite: LO-74 Catalog number: 39440 Epoch time: 14302.74856828 Element set: 299 Inclination: 097.7575 deg RA of node: 005.9364 deg Eccentricity: 0.0084084 Arg of perigee: 170.8961 deg Mean anomaly: 189.3796 deg Mean motion: 14.73491904 rev/day Decay rate: 2.681e-05 rev/day^2 Epoch rev: 5039 Checksum: 360
Satellite: PUCPSAT-1 Catalog number: 39442 Epoch time: 14303.14349223 Element set: 299 Inclination: 097.7677 deg RA of node: 013.3562 deg Eccentricity: 0.0034927 Arg of perigee: 159.7446 deg Mean anomaly: 200.5165 deg Mean motion: 14.86808568 rev/day Decay rate: 6.513e-05 rev/day^2 Epoch rev: 4967 Checksum: 329
Satellite: SHINAISAT Catalog number: 39572 Epoch time: 14303.56337685 Element set: 369 Inclination: 064.9988 deg RA of node: 287.3158 deg Eccentricity: 0.0016386 Arg of perigee: 284.7534 deg Mean anomaly: 075.1815 deg Mean motion: 15.94946933 rev/day Decay rate: 2.75524e-03 rev/day^2 Epoch rev: 3845 Checksum: 364
Satellite: TEIKYOSAT Catalog number: 39576 Epoch time: 14297.85867254 Element set: 437 Inclination: 064.9818 deg RA of node: 300.5833 deg Eccentricity: 0.0008491 Arg of perigee: 317.3597 deg Mean anomaly: 044.3862 deg Mean motion: 16.45008906 rev/day Decay rate: 9.345816e-02 rev/day^2 Epoch rev: 3769 Checksum: 359
Satellite: CO-77 Catalog number: 39577 Epoch time: 14244.78324653 Element set: 379 Inclination: 064.9920 deg RA of node: 123.7668 deg Eccentricity: 0.0014904 Arg of perigee: 269.7208 deg Mean anomaly: 091.1897 deg Mean motion: 16.43552757 rev/day Decay rate: 1.0543803e-01 rev/day^2 Epoch rev: 2938 Checksum: 363
Satellite: SPROUT Catalog number: 39770 Epoch time: 14303.10268024 Element set: 177 Inclination: 097.8751 deg RA of node: 038.2155 deg Eccentricity: 0.0009200 Arg of perigee: 227.5175 deg Mean anomaly: 132.5261 deg Mean motion: 14.82945897 rev/day Decay rate: 2.825e-05 rev/day^2 Epoch rev: 2352 Checksum: 290
Satellite: POPSAT-HIP1 Catalog number: 40028 Epoch time: 14303.76720004 Element set: 408 Inclination: 097.9697 deg RA of node: 198.6515 deg Eccentricity: 0.0013295 Arg of perigee: 208.1954 deg Mean anomaly: 151.8558 deg Mean motion: 14.85587982 rev/day Decay rate: 4.738e-05 rev/day^2 Epoch rev: 1970 Checksum: 333
Satellite: EO-80 Catalog number: 40032 Epoch time: 14303.65310091 Element set: 396 Inclination: 097.9682 deg RA of node: 198.4255 deg Eccentricity: 0.0011363 Arg of perigee: 205.3736 deg Mean anomaly: 154.6935 deg Mean motion: 14.85344695 rev/day Decay rate: 4.408e-05 rev/day^2 Epoch rev: 1969 Checksum: 318
Satellite: VELOX-1 Catalog number: 40057 Epoch time: 14303.74234046 Element set: 395 Inclination: 098.2399 deg RA of node: 013.0258 deg Eccentricity: 0.0010404 Arg of perigee: 250.0223 deg Mean anomaly: 109.9869 deg Mean motion: 14.74439354 rev/day Decay rate: 4.378e-05 rev/day^2 Epoch rev: 1805 Checksum: 288
Satellite: DAURIA DX 1 Catalog number: 40071 Epoch time: 14303.74847775 Element set: 367 Inclination: 098.3875 deg RA of node: 000.4508 deg Eccentricity: 0.0007294 Arg of perigee: 255.8871 deg Mean anomaly: 104.1518 deg Mean motion: 14.79727283 rev/day Decay rate: 2.087e-05 rev/day^2 Epoch rev: 1685 Checksum: 319
Satellite: UKUBE-1 Catalog number: 40074 Epoch time: 14303.74393282 Element set: 369 Inclination: 098.3883 deg RA of node: 000.6316 deg Eccentricity: 0.0003519 Arg of perigee: 266.6115 deg Mean anomaly: 093.4690 deg Mean motion: 14.80816111 rev/day Decay rate: 4.273e-05 rev/day^2 Epoch rev: 1686 Checksum: 291
Satellite: CHASQUI-1 Catalog number: 40117 Epoch time: 14303.84847218 Element set: 237 Inclination: 051.6449 deg RA of node: 144.8551 deg Eccentricity: 0.0008051 Arg of perigee: 218.8645 deg Mean anomaly: 244.3456 deg Mean motion: 15.61300134 rev/day Decay rate: 1.35129e-03 rev/day^2 Epoch rev: 1137 Checksum: 276
/EX